Theta_e
338 337 334 333 334 334 335 339 344 345 344 341 338 335 335 337 338 339 339 339 340 341 341 342 343 343 345 347 347 345 345 345 345 344 343 342 342 343 343 344 345 344
337 336 335 334 334 335 335 337 341 343 343 342 339 336 335 335 337 338 339 339 339 339 340 340 341 343 344 346 346 345 344 344 345 345 344 343 342 340 341 342 343 343
335 335 335 334 333 334 334 335 337 339 340 341 339 336 335 335 335 336 338 339 339 339 339 338 339 340 340 343 345 344 344 344 345 346 346 345 343 339 337 339 341 343
333 333 334 333 333 333 334 335 335 335 336 338 338 336 335 335 335 335 337 339 339 339 339 338 338 338 338 339 341 342 343 343 345 347 346 345 344 340 336 336 340 343
332 333 333 333 333 332 333 334 335 334 334 334 335 335 335 335 335 334 335 338 339 339 339 339 339 339 338 339 339 340 341 341 344 346 345 344 343 341 337 335 339 343
331 332 332 333 333 332 332 333 334 334 333 333 332 332 332 334 335 334 335 336 336 336 337 338 339 339 339 339 339 339 339 340 342 344 344 344 343 342 339 336 337 342
332 330 331 332 332 331 331 331 332 333 332 332 332 330 330 332 333 334 334 333 331 330 330 332 334 336 337 338 339 339 338 338 339 342 343 343 343 343 341 338 337 339
335 331 330 331 332 331 330 330 331 331 331 331 332 330 329 330 331 331 331 330 328 326 326 326 327 328 330 333 335 338 338 338 338 339 340 341 341 342 341 340 339 338
341 336 332 330 330 331 331 330 329 329 329 330 331 331 329 328 328 328 328 327 326 326 325 325 325 326 326 327 329 333 336 338 338 337 337 338 339 340 340 341 341 340
344 342 338 334 331 329 329 329 329 328 328 328 329 330 330 329 328 327 327 325 325 325 325 325 325 325 326 326 326 327 330 334 337 338 337 337 337 337 338 339 340 340
344 344 343 341 337 334 330 328 329 329 328 327 327 328 330 330 329 329 328 327 325 325 325 325 326 325 325 326 326 325 326 329 333 336 337 337 337 336 336 337 338 339
345 344 344 344 343 341 336 332 329 328 328 328 327 327 328 329 330 330 330 329 327 326 325 325 325 326 325 325 325 326 325 326 328 331 334 336 337 337 337 336 336 336
345 345 345 344 344 344 343 339 335 330 328 328 327 327 327 328 329 330 330 330 328 327 326 325 325 325 325 325 325 326 326 325 325 327 330 332 334 335 336 337 336 336
346 345 345 345 345 345 345 344 342 338 334 330 328 327 327 327 328 327 328 328 328 327 325 325 325 325 325 326 325 326 326 325 324 324 326 329 331 333 334 335 336 336
346 346 345 345 346 346 346 346 346 345 342 339 334 330 327 326 327 326 327 327 327 326 326 325 325 325 326 326 326 326 325 325 324 323 324 326 329 332 333 334 334 335
346 346 346 346 346 347 347 347 347 347 347 346 343 339 332 328 326 325 325 325 325 325 325 325 324 325 325 325 325 324 324 324 323 322 323 324 327 330 332 333 334 334
346 346 346 347 347 348 348 348 348 348 349 349 349 348 344 339 334 330 327 325 324 324 324 323 323 322 322 322 322 322 322 322 322 322 322 323 326 329 331 333 333 334
347 347 347 347 347 348 348 349 349 349 350 350 350 350 350 348 346 341 337 333 330 328 327 326 324 323 322 322 321 321 321 321 321 322 322 323 325 328 331 333 333 333
347 347 348 348 348 349 349 349 350 350 351 351 351 352 352 352 351 349 347 344 341 337 334 331 329 327 326 325 324 323 323 323 323 323 323 325 326 329 331 333 333 333
348 348 349 349 349 349 350 350 350 351 352 351 352 352 353 353 353 353 352 351 349 346 342 338 335 332 331 330 328 327 326 326 326 326 326 327 328 330 332 333 334 334
349 349 350 350 350 350 350 351 351 352 352 352 353 353 353 354 354 354 354 354 352 351 349 344 339 335 334 333 332 332 331 330 330 330 330 331 331 332 333 333 334 334
350 351 351 351 351 351 351 352 352 352 352 353 354 354 354 355 355 355 355 355 354 354 353 349 343 337 337 336 335 335 335 334 334 334 334 334 334 334 334 334 335 335
351 352 352 352 352 353 353 353 354 354 354 354 354 354 355 355 356 356 356 356 356 356 355 353 346 340 339 338 336 337 337 336 336 336 335 336 335 335 335 335 335 335
353 353 354 354 354 354 355 355 354 353 354 355 355 355 355 356 357 357 357 357 358 359 358 356 349 342 340 340 338 339 340 338 338 337 337 336 337 336 337 336 336 336
355 355 355 355 355 355 356 356 355 352 352 354 355 354 354 355 356 357 357 358 358 360 360 359 354 347 343 342 341 341 341 341 340 339 338 337 337 338 338 338 337 336
357 358 357 357 357 356 357 357 356 354 353 354 355 354 354 355 356 356 357 358 358 360 361 361 358 352 345 343 342 343 343 343 342 341 339 338 338 338 338 339 338 337
Wind_Speed
32 30 28 27 27 25 25 23 23 23 22 21 19 17 16 14 14 14 13 12 11 11 10 10 10 9 9 10 10 9 9 9 9 9 9 9 10 10 10 9 9 10
33 32 30 29 28 26 26 24 23 23 23 23 21 18 17 15 15 15 14 13 12 12 11 11 11 10 10 11 10 10 10 9 8 8 8 8 9 9 10 10 10 9
34 33 32 31 29 28 26 26 24 23 23 24 22 20 18 16 16 15 15 14 14 13 12 12 12 11 10 10 11 11 11 10 9 8 8 8 8 8 9 10 10 10
34 34 33 32 30 29 27 27 26 24 24 24 23 21 19 18 17 16 16 16 15 14 13 13 12 11 11 10 11 11 12 12 10 10 10 9 8 8 9 10 11 12
34 34 34 32 32 30 29 29 28 26 24 24 23 22 20 19 18 17 18 17 16 15 14 13 13 12 12 12 12 12 12 12 11 12 11 10 9 9 9 11 13 14
34 35 34 34 33 32 31 30 29 27 26 24 24 23 22 21 20 19 19 18 17 15 15 14 14 13 13 13 13 13 12 12 12 13 12 11 10 10 10 11 14 16
33 34 35 35 34 34 33 31 30 29 27 25 25 24 23 22 21 20 20 19 17 16 15 15 14 14 14 14 14 14 13 13 13 13 13 12 11 11 11 11 14 16
32 33 35 36 36 35 34 33 32 31 29 28 26 26 25 23 22 21 21 20 18 17 16 15 15 14 15 15 15 16 15 15 14 14 14 14 13 13 13 13 14 15
33 33 34 35 36 37 36 35 34 33 31 30 29 27 27 25 24 23 22 21 20 19 18 17 17 16 16 16 16 16 16 16 16 16 15 15 15 15 14 15 15 16
35 34 34 35 36 37 37 37 36 35 34 33 31 30 29 28 27 26 25 24 23 22 21 20 19 18 18 17 17 17 17 18 18 18 17 17 17 16 16 16 17 17
38 37 36 36 35 36 37 37 38 37 36 35 34 33 32 30 30 29 28 27 26 25 24 22 21 21 20 20 19 19 19 19 19 19 19 19 18 18 18 18 18 18
40 39 38 37 36 36 36 37 38 39 39 38 37 36 35 34 33 33 32 31 30 28 27 26 25 24 24 23 22 21 21 21 21 21 21 21 21 20 20 19 19 19
42 41 39 38 36 35 35 36 37 39 40 40 40 39 38 37 36 36 35 35 34 32 31 30 29 28 28 27 26 25 24 23 23 23 23 23 23 23 22 21 21 21
43 41 40 38 37 36 36 36 37 38 39 40 41 41 41 40 39 38 38 38 37 36 35 34 33 32 31 30 29 28 27 26 25 24 24 24 24 24 24 24 23 23
43 42 41 39 38 37 37 37 36 36 37 38 40 41 42 42 42 41 41 41 40 39 39 38 37 36 35 33 32 31 30 29 27 26 25 24 24 24 25 25 25 24
43 42 41 40 39 38 37 37 36 36 36 36 37 39 40 42 42 43 43 43 43 42 42 42 41 40 37 35 34 33 32 31 30 28 27 26 25 25 25 25 26 26
44 43 42 41 40 38 37 37 36 36 36 35 35 35 37 38 40 42 43 43 42 42 42 42 42 40 38 36 34 33 32 32 31 30 29 28 27 26 26 26 26 26
44 44 43 42 41 39 38 37 37 37 37 36 35 35 34 35 37 39 41 41 41 41 41 41 40 39 37 35 33 32 31 31 31 30 30 29 28 27 27 27 27 27
44 44 43 42 41 39 38 38 38 38 37 37 36 35 34 34 35 36 37 38 39 40 40 40 39 38 36 34 33 31 31 31 31 31 31 30 29 28 28 28 28 28
44 44 44 42 41 40 39 39 39 38 37 36 36 35 36 35 35 35 36 36 37 38 39 40 39 38 36 34 33 31 31 31 31 32 32 31 30 29 29 29 29 29
44 44 43 42 41 41 41 40 39 38 37 36 36 36 36 35 35 35 35 36 36 37 37 38 39 38 37 35 34 32 31 31 32 32 32 31 30 30 29 29 29 29
43 43 42 42 41 41 42 41 40 40 38 36 36 36 36 36 36 36 35 36 36 36 37 38 38 38 37 36 34 33 32 32 32 32 32 31 31 30 30 29 29 29
42 42 42 41 41 41 41 39 38 38 38 38 38 37 36 36 35 35 35 35 35 36 37 38 38 37 37 36 35 33 33 33 32 32 32 32 31 30 30 30 29 30
40 41 41 40 40 40 39 37 34 32 34 36 38 39 39 38 37 36 36 35 35 35 35 37 38 37 36 36 34 33 33 33 32 32 32 32 32 31 31 31 31 30
40 40 40 40 39 38 37 38 36 32 29 29 31 32 33 35 37 38 39 39 37 36 35 35 36 36 36 36 34 34 34 34 33 33 33 33 32 32 31 32 31 31
37 38 39 39 39 37 35 36 37 36 31 27 26 25 25 29 33 34 37 39 40 39 37 35 35 35 35 36 35 34 34 34 34 34 34 33 33 32 32 32 32 32
Wind_Direction
227 226 225 226 227 226 224 225 225 222 220 222 222 219 217 218 217 221 224 224 225 226 225 225 220 214 212 212 215 218 219 220 223 228 234 237 240 242 243 245 247 253
227 227 226 226 227 227 225 224 226 227 225 225 226 222 219 221 220 222 225 225 226 226 224 225 223 220 218 219 222 225 226 223 219 225 234 238 241 244 245 246 247 248
228 228 227 226 227 227 225 223 225 227 227 227 227 224 220 222 223 224 225 226 227 226 224 224 225 226 226 226 230 234 238 236 227 226 235 239 241 244 244 243 242 237
227 228 228 227 228 228 227 225 224 224 226 225 225 224 222 223 225 225 224 227 228 226 226 227 227 230 233 234 237 240 244 244 238 235 237 238 239 239 240 239 235 227
227 228 228 228 229 229 229 227 225 224 224 224 224 225 226 225 225 224 223 224 226 227 228 229 231 234 236 239 242 243 246 247 243 242 241 238 236 236 236 235 230 225
228 229 229 229 229 230 230 229 227 226 225 225 225 226 228 227 226 225 222 221 223 226 229 231 233 236 239 243 246 246 247 246 243 241 241 238 235 236 235 232 230 227
230 230 230 230 231 231 231 231 230 228 227 227 226 226 226 227 226 224 221 222 226 228 231 235 237 240 243 246 249 250 249 246 241 238 239 238 236 236 234 232 231 231
232 232 231 231 232 232 232 232 231 230 229 230 228 226 225 226 226 225 224 227 231 233 236 240 243 245 248 249 251 252 252 249 245 241 240 240 239 236 235 234 233 233
233 233 233 232 233 233 234 234 233 231 231 232 231 228 227 226 226 228 230 233 236 239 243 246 249 251 252 253 253 253 253 253 251 249 246 244 243 241 240 239 238 237
234 234 234 234 234 234 235 236 235 234 233 233 232 231 230 229 230 233 236 239 241 244 247 250 252 254 255 257 258 258 258 256 254 253 252 250 248 246 245 244 244 243
235 236 236 236 236 236 236 237 237 237 236 235 234 234 233 232 234 236 239 242 245 247 249 252 254 257 259 261 262 263 263 260 257 255 254 254 253 251 250 249 248 248
236 237 237 238 238 238 238 238 238 238 239 239 238 237 237 236 237 239 241 244 246 249 251 253 256 259 262 263 265 265 265 264 261 258 255 255 255 255 254 253 252 251
237 238 239 240 241 241 241 240 240 240 240 241 242 242 241 241 240 242 244 246 248 251 252 254 257 259 262 263 265 266 266 266 264 262 259 257 256 256 256 256 255 254
238 240 241 242 243 243 243 243 242 242 242 243 244 244 245 245 245 245 246 248 250 252 253 255 257 258 260 261 263 264 266 266 265 264 262 259 257 256 256 256 256 255
240 241 242 243 244 244 245 245 244 244 244 244 244 245 246 248 249 249 250 251 252 253 254 256 257 257 257 258 260 262 263 264 264 263 262 261 259 257 256 255 255 254
240 241 242 243 244 245 246 246 246 245 245 245 245 246 247 248 249 250 251 252 253 255 256 256 257 256 256 256 257 258 260 262 262 262 261 261 260 258 256 255 255 254
240 241 242 243 244 245 246 246 246 246 246 246 246 246 246 246 248 249 250 252 253 255 256 256 256 255 255 254 254 255 257 258 259 259 260 260 260 258 255 254 254 254
240 241 242 243 244 245 246 247 247 247 247 247 247 247 247 247 247 248 249 250 251 253 254 255 255 254 253 253 252 252 253 255 256 257 259 260 261 259 255 253 252 253
240 241 242 244 245 246 247 248 248 249 249 249 249 250 250 250 250 249 250 250 250 251 252 253 253 253 252 251 251 250 251 253 255 256 258 260 261 259 256 253 252 252
240 241 243 246 247 247 248 248 249 250 251 251 252 252 252 252 252 252 252 251 251 250 250 251 251 251 251 250 250 249 250 252 255 257 259 260 260 259 256 254 252 252
239 241 243 245 247 247 247 248 250 251 252 253 253 254 255 255 255 255 255 254 253 252 252 251 250 249 250 250 249 249 249 252 255 257 259 260 258 257 256 254 253 253
238 240 242 243 244 245 246 248 249 251 253 254 255 256 257 258 257 257 257 256 255 255 254 252 249 248 248 249 248 248 249 252 254 255 257 258 257 255 254 253 252 253
237 238 240 241 242 242 244 246 248 251 253 254 255 256 257 258 259 259 258 258 258 257 255 252 248 246 247 247 247 247 250 251 252 253 254 255 254 253 253 252 251 252
236 237 238 239 240 241 243 245 246 250 253 254 255 257 258 259 261 261 261 260 259 259 257 254 250 246 246 246 246 247 249 251 251 252 253 254 253 252 252 252 251 251
235 237 238 238 240 242 245 246 245 246 248 251 252 253 256 258 259 261 262 261 261 260 260 258 254 249 245 245 245 246 248 249 250 251 252 252 253 253 253 253 251 250
230 233 236 239 241 244 246 247 246 243 243 246 248 247 250 254 257 259 261 260 260 260 260 260 258 253 248 245 244 245 246 248 249 250 250 250 252 253 254 254 252 250